Location: Songkhla
(7.2000°N, 100.6000°E)
Time: 20:20:10
(UTC+07:00)

ISS - Pass Details

Date: 21 April 2026
Orbit: 414 x 424 km, 51.6° (Epoch: 19 May)

Event Time Altitude Azimuth Distance (km) Brightness Sun altitude
Rises 13:14:46 0° 306° (NW) 2,368 0.3 74.9°
Reaches altitude 10° 13:17:06 10° 293° (WNW) 1,504 -0.5 74.3°
Maximum altitude 13:19:56 25° 235° (SW) 891 -1.5 73.7°
Drops below altitude 10° 13:22:47 10° 178° (S) 1,503 -0.9 73.0°
Sets 13:25:07 0° 164° (SSE) 2,367 0.0 72.4°
